Dewpoint
35 35 35 35 35 36 36 36 31 26 23 22 21 22 22 22 22 23 22 23 22 23 23 24 23 24 24 24 24 26 27 27 28 28 33 34 34 35
34 34 35 36 36 35 34 30 28 26 24 21 19 20 21 19 20 21 22 21 22 23 24 23 24 25 25 24 26 27 29 30 29 28 30 30 32 34
31 32 35 34 34 33 30 25 20 19 17 18 19 20 19 19 20 21 21 21 21 23 21 23 24 24 26 25 26 30 31 32 33 31 32 32 32 33
29 29 29 32 28 26 22 19 17 17 17 15 17 17 18 19 19 20 20 20 22 22 21 21 21 24 27 28 31 31 31 31 33 34 32 32 32 32
29 28 27 26 24 22 19 17 17 17 18 18 17 18 18 18 19 20 21 21 23 20 18 17 18 25 25 25 25 31 31 34 34 35 34 34 34 32
29 27 25 23 18 17 16 15 16 17 18 18 18 18 17 18 20 20 20 22 20 18 17 18 19 23 19 23 24 30 32 34 34 34 35 35 33 34
24 21 20 20 21 18 16 17 18 18 18 17 18 18 18 18 19 20 22 18 16 17 17 20 19 20 22 23 23 29 28 34 34 33 32 32 33 35
22 20 19 21 21 23 23 22 20 17 16 18 18 16 16 14 15 16 17 16 16 18 19 19 20 20 21 22 23 25 25 27 33 33 32 32 34 36
23 20 19 22 21 19 19 18 17 16 15 18 16 16 14 14 15 17 19 19 19 20 20 20 20 20 20 20 23 24 26 29 29 33 33 33 34 36
23 21 20 20 20 19 18 17 17 16 16 16 17 16 16 19 21 22 23 24 23 22 22 19 19 19 21 22 25 27 29 30 31 32 32 32 33 36
24 23 22 20 21 21 18 18 17 15 15 17 17 18 19 20 22 23 21 21 18 19 21 22 20 20 22 22 24 28 29 31 31 32 30 32 33 36
23 22 20 19 21 20 20 19 16 14 15 17 17 17 18 19 21 21 22 20 20 18 20 23 23 22 20 22 22 26 28 29 31 31 31 32 34 35
23 22 21 22 21 22 22 20 17 17 19 20 18 17 17 18 19 20 22 22 21 20 21 25 25 23 23 22 22 26 29 30 29 30 31 33 34 35
22 23 23 23 23 24 23 23 23 23 21 19 16 16 14 15 17 19 21 22 23 23 24 27 26 23 22 22 21 24 26 28 31 30 32 32 32 32
23 22 22 24 25 24 24 23 23 22 19 17 15 15 13 15 18 18 19 21 22 24 23 28 28 26 25 23 22 20 22 22 29 31 31 31 31 31
23 24 23 23 24 23 22 21 21 20 19 16 16 13 15 16 16 17 18 20 21 19 21 23 25 28 24 24 22 22 22 22 25 30 31 31 31 32
25 23 22 21 21 23 21 21 20 19 18 17 14 14 15 17 16 18 18 18 18 18 19 21 23 27 27 24 21 21 21 23 26 27 30 30 30 31
24 23 23 21 21 21 19 19 20 19 18 16 13 15 14 16 16 17 17 16 16 17 18 20 21 20 20 23 27 23 22 24 26 27 29 28 28 30
26 24 24 21 21 20 19 19 19 20 17 15 16 14 13 16 16 16 16 16 15 15 17 17 17 18 17 16 22 28 24 25 25 25 24 27 27 28
25 23 21 20 19 19 19 19 19 19 15 16 15 14 12 15 16 14 15 15 14 15 14 13 14 16 18 18 20 24 28 25 25 25 24 26 27 28
26 24 22 21 21 21 21 20 19 18 16 15 14 14 14 17 15 12 13 16 14 14 12 10 13 18 23 24 21 22 23 27 28 26 25 24 25 25
26 25 25 23 22 22 22 22 20 19 17 15 15 14 15 15 14 11 12 16 16 13 12 12 15 20 24 24 22 21 21 21 23 26 28 27 24 22
28 26 26 25 24 24 24 23 22 22 20 18 17 16 15 14 13 11 14 17 14 11 11 11 13 16 19 22 22 23 22 21 21 21 22 26 27 28
Wind_Speed
4 6 8 10 4 1 2 3 4 5 6 3 2 6 7 11 14 14 15 17 22 21 22 21 21 22 23 24 25 24 26 30 30 24 23 25 25 27
5 7 7 3 4 2 5 3 4 2 7 2 3 5 9 12 14 15 15 21 19 20 19 22 21 22 24 24 21 22 24 28 30 23 22 22 24 26
4 5 5 6 5 5 2 2 3 2 7 6 5 7 9 13 15 14 15 14 13 16 21 21 23 24 20 19 20 21 23 25 23 22 23 25 25 25
4 2 2 4 2 2 4 3 1 2 3 12 7 9 11 13 14 16 15 14 12 15 21 22 24 24 20 18 16 19 24 26 25 24 21 23 24 24
3 5 4 2 4 4 4 5 3 3 4 6 10 7 8 11 14 13 13 14 12 19 21 22 23 21 19 20 21 19 25 21 19 20 20 22 23 23
4 2 3 4 4 6 5 3 3 5 7 10 11 12 10 12 11 13 15 11 17 17 21 20 21 20 23 21 22 18 22 18 19 18 17 20 23 23
1 2 1 3 7 5 4 4 3 6 9 12 12 12 13 13 12 12 15 17 19 16 16 10 15 16 16 17 19 17 16 21 14 9 14 19 23 23
4 3 2 3 6 7 6 5 2 5 10 8 10 12 11 13 12 13 15 16 13 7 4 21 12 16 15 14 19 20 18 18 17 20 17 20 23 22
5 6 4 5 6 6 3 3 4 6 8 9 12 9 13 13 15 16 15 14 17 21 12 17 11 15 15 15 22 22 23 20 21 24 20 22 23 24
6 7 7 7 8 7 5 5 7 8 8 8 9 13 13 13 13 15 16 15 15 15 10 12 14 16 15 15 19 18 16 19 19 19 17 20 22 24
7 6 6 7 9 7 5 8 10 10 6 9 12 16 18 18 16 12 11 13 18 19 9 8 10 10 11 14 11 11 13 19 21 14 14 18 22 14
8 7 7 8 11 9 6 7 11 11 9 10 12 13 14 14 15 11 11 13 14 14 5 5 10 6 6 4 13 10 14 21 13 9 13 16 18 7
12 11 10 12 12 10 9 7 10 9 12 11 11 11 12 11 11 11 11 11 14 16 19 15 5 4 4 8 7 8 13 17 9 10 13 15 12 9
15 13 12 14 14 13 10 10 12 12 13 15 14 14 13 12 11 12 14 13 13 17 21 19 8 5 5 7 8 8 7 11 10 9 11 10 9 10
15 15 14 13 17 13 13 13 13 12 14 15 15 13 9 11 12 12 13 13 14 15 12 14 9 11 10 9 9 12 15 9 7 12 7 8 4 2
15 13 13 13 14 15 12 13 12 11 12 14 11 8 9 10 12 11 11 14 12 12 13 13 14 5 5 8 9 8 10 7 12 8 11 5 2 6
11 10 13 13 15 15 14 13 13 11 11 10 7 7 8 8 9 11 9 12 11 13 14 15 16 9 9 9 8 8 9 10 11 9 9 8 9 9
9 11 15 16 18 16 16 15 13 14 11 10 7 7 7 7 10 11 10 11 11 12 12 12 14 15 8 3 4 8 6 5 7 9 8 8 11 9
14 16 15 16 19 17 16 15 15 15 11 11 9 9 6 7 8 10 11 11 11 11 12 12 12 10 10 9 4 9 5 4 6 7 8 9 6 11
15 17 19 18 17 16 15 15 15 12 14 12 11 9 6 5 8 8 10 10 12 10 11 11 10 9 7 6 7 4 12 5 3 3 2 4 4 4
18 18 17 16 16 16 15 16 16 15 17 14 13 11 7 6 8 7 8 11 10 8 11 13 13 16 13 8 3 0 5 12 11 2 1 4 2 2
16 18 17 16 16 16 15 14 15 15 17 17 15 13 10 8 8 6 7 8 9 8 9 12 13 13 8 5 1 3 3 4 8 17 19 9 1 2
16 18 17 16 16 15 15 14 15 15 16 17 16 14 11 10 9 6 5 6 5 6 9 11 11 8 9 7 6 3 3 2 2 9 14 16 15 15
Wind_Direction
288 275 265 271 199 73 324 262 255 301 296 316 351 11 348 343 331 323 320 312 312 312 306 302 304 303 301 299 297 297 295 290 284 276 279 285 290 294
271 274 271 208 191 214 231 261 234 234 290 296 285 324 326 320 314 317 306 311 307 305 313 309 308 309 306 300 295 294 294 291 272 270 278 286 292 295
276 253 214 200 225 231 235 164 172 188 270 290 289 305 306 312 311 305 305 299 299 316 316 314 316 311 308 306 297 295 298 291 282 274 279 283 289 294
249 223 211 202 196 207 181 199 224 264 245 291 293 307 313 312 303 308 307 310 312 311 316 314 313 307 304 304 300 305 297 288 271 271 279 277 284 292
233 221 235 243 251 207 225 240 241 242 264 268 300 296 300 303 306 305 299 302 303 310 308 302 301 307 310 308 309 304 306 288 270 265 264 272 282 289
210 239 259 207 216 236 247 253 253 277 284 302 298 297 299 301 290 300 308 304 302 302 297 296 301 305 305 308 306 297 323 289 286 265 257 271 280 286
140 125 183 250 239 198 192 233 239 282 304 305 302 301 307 311 310 307 296 302 302 290 284 293 305 297 293 298 298 284 318 316 306 260 261 278 284 284
216 207 258 165 160 155 136 151 209 299 304 299 300 299 300 312 303 299 298 306 312 269 311 302 291 286 282 280 282 291 297 280 299 289 278 282 286 284
209 218 245 195 187 193 208 249 296 324 307 296 297 292 305 300 299 298 292 289 289 292 297 293 283 280 281 283 287 288 285 280 277 258 268 280 288 287
215 224 236 236 216 215 236 295 316 316 305 300 297 304 295 293 285 288 290 291 289 287 270 283 292 288 287 283 293 308 293 291 279 242 260 280 293 287
227 237 241 223 210 212 251 299 310 307 302 302 309 308 312 312 312 316 315 316 312 310 291 265 281 282 293 291 305 342 349 327 301 245 275 285 298 245
231 223 223 212 203 223 253 282 298 295 299 303 303 307 309 305 314 309 301 305 306 312 313 277 279 277 307 288 324 326 346 332 298 257 280 292 299 240
227 224 220 215 217 237 262 241 258 271 286 284 288 299 298 301 303 300 291 284 293 287 293 307 272 257 248 289 300 313 352 323 301 285 288 290 286 239
226 228 220 222 228 245 263 263 266 273 271 279 291 299 302 312 308 307 300 291 277 274 291 296 275 258 248 278 292 313 305 314 338 286 283 285 303 213
224 229 223 223 236 255 264 273 281 275 273 281 283 287 288 307 311 318 310 305 300 296 309 306 298 261 252 257 285 304 320 330 320 330 297 287 286 191
231 232 227 229 241 259 270 273 266 260 260 261 270 269 292 316 324 319 315 321 318 320 322 328 332 275 257 253 266 291 315 327 331 341 338 323 353 62
222 224 238 238 248 253 263 264 259 266 259 244 238 278 296 311 320 323 324 328 328 326 331 334 347 324 268 260 270 270 298 320 332 336 351 11 43 41
208 223 234 236 237 242 256 262 261 263 259 219 242 255 284 306 320 328 331 333 329 328 328 333 345 353 350 4 243 289 290 296 333 352 6 29 48 34
220 225 231 234 238 238 245 249 257 254 226 210 229 247 273 301 316 326 335 334 332 330 329 334 344 357 353 342 315 47 348 347 342 9 45 46 47 33
218 222 228 230 233 236 242 244 251 247 207 217 226 232 247 279 293 314 333 333 328 324 328 332 331 331 320 305 310 349 21 1 340 332 60 60 49 47
225 222 223 225 228 231 235 239 240 229 213 219 227 227 230 246 264 295 324 328 327 329 331 328 316 307 283 270 283 3 16 21 40 27 101 108 95 35
235 234 222 223 223 224 228 230 234 226 221 224 228 229 224 216 242 279 313 321 317 328 322 316 326 334 349 345 283 123 112 25 34 52 48 55 114 180
246 235 230 217 219 221 221 219 222 226 218 222 224 226 211 211 227 246 293 308 309 335 348 341 345 349 359 1 32 61 102 103 44 55 44 28 52 67